Location: Bukit Lungun
(2.6833°N, 113.9667°E)
Time: 10:37:04
(UTC+00:00)

Delta 168 - Pass Details

Date: 02 March 2021
Orbit: 394 x 2046 km, 25.3° (Epoch: 20 April)

Event Time Altitude Azimuth Distance (km) Brightness Sun altitude
Exits shadow 20:54:14 76° 184° (S) 710 3.2 -25.6°
Drops below altitude 10° 21:00:14 10° 120° (ESE) 2,668 7.2 -24.1°
Sets 21:03:32 0° 119° (ESE) 3,921 8.3 -23.3°
